Location: Bagnolo San Vito
(45.0833°N, 10.8833°E)
Time: 22:40:00
(UTC+00:00)

Cosmos 2322 - Pass Details

Date: 03 March 2021
Orbit: 842 x 853 km, 71.0° (Epoch: 17 April)

Event Time Altitude Azimuth Distance (km) Brightness Sun altitude
Rises 19:43:41 0° 219° (SW) 3,410 7.1 -28.1°
Reaches altitude 10° 19:46:11 10° 224° (SW) 2,478 6.4 -28.5°
Maximum altitude 19:51:44 52° 301° (WNW) 1,049 4.4 -29.4°
Drops below altitude 10° 19:57:20 10° 18° (NNE) 2,490 6.2 -30.3°
Sets 19:59:52 0° 23° (NNE) 3,428 6.9 -30.7°
